Hourly Weather Barshatas

Today, 18 April, Sunday

Time Temperature Precipitation Wind Pressure Humidity
00:00 +8°C° 0 mm 3 mps 706 mmHg 68%
01:00 +8°C° 0 mm 2 mps 706 mmHg 70%
02:00 +7°C° 0 mm 2 mps 705 mmHg 72%
03:00 +7°C° 0 mm 2 mps 705 mmHg 72%
04:00 +6°C° 0 mm 2 mps 705 mmHg 72%
05:00 +6°C° 0 mm 2 mps 705 mmHg 71%
06:00 +9°C° 0 mm 1 mps 705 mmHg 64%
07:00 +10°C° 0 mm 1 mps 705 mmHg 57%
08:00 +11°C° 0 mm 0 mps 706 mmHg 50%
09:00 +14°C° 0 mm 1 mps 705 mmHg 46%
10:00 +15°C° 0 mm 2 mps 705 mmHg 42%
11:00 +17°C° 0 mm 3 mps 705 mmHg 37%
12:00 +17°C° 0 mm 4 mps 705 mmHg 33%
13:00 +18°C° 0 mm 4 mps 705 mmHg 29%
14:00 +19°C° 0 mm 4 mps 705 mmHg 24%
15:00 +19°C° 0 mm 4 mps 704 mmHg 24%
16:00 +19°C° 0 mm 4 mps 704 mmHg 23%
17:00 +19°C° 0 mm 4 mps 703 mmHg 22%
18:00 +18°C° 0 mm 4 mps 703 mmHg 24%
19:00 +16°C° 0 mm 3 mps 703 mmHg 26%
20:00 +15°C° 0 mm 2 mps 703 mmHg 28%
21:00 +14°C° 0 mm 3 mps 703 mmHg 31%
22:00 +13°C° 0 mm 3 mps 702 mmHg 33%
23:00 +13°C° 0 mm 3 mps 702 mmHg 36%

Tomorrow, 19 April, Monday

Time Temperature Precipitation Wind Pressure Humidity
00:00 +12°C° 0 mm 3 mps 702 mmHg 38%
01:00 +12°C° 0 mm 3 mps 702 mmHg 40%
02:00 +11°C° 0 mm 3 mps 702 mmHg 42%
03:00 +11°C° 0.1 mm 3 mps 702 mmHg 47%
04:00 +10°C° 0.1 mm 3 mps 702 mmHg 52%
05:00 +10°C° 0.1 mm 3 mps 702 mmHg 56%
06:00 +11°C° 0.1 mm 3 mps 702 mmHg 53%
07:00 +12°C° 0.1 mm 3 mps 702 mmHg 51%
08:00 +13°C° 0.1 mm 3 mps 702 mmHg 48%
09:00 +14°C° 0 mm 3 mps 702 mmHg 46%
10:00 +14°C° 0 mm 3 mps 702 mmHg 44%
11:00 +15°C° 0 mm 4 mps 702 mmHg 42%
12:00 +15°C° 0.2 mm 4 mps 702 mmHg 44%
13:00 +14°C° 0.2 mm 5 mps 701 mmHg 46%
14:00 +14°C° 0.2 mm 5 mps 701 mmHg 48%
15:00 +11°C° 0.4 mm 7 mps 701 mmHg 53%
16:00 +7°C° 0.4 mm 8 mps 701 mmHg 58%
17:00 +5°C° 0.4 mm 9 mps 701 mmHg 63%
18:00 +2°C° 0.1 mm 9 mps 702 mmHg 65%
19:00 0°C° 0.1 mm 9 mps 702 mmHg 66%
20:00 -3°C° 0.1 mm 9 mps 703 mmHg 68%
21:00 -4°C° 0.2 mm 8 mps 703 mmHg 71%
22:00 -4°C° 0.2 mm 8 mps 703 mmHg 74%
23:00 -5°C° 0.2 mm 8 mps 703 mmHg 78%

Day after tomorrow, 20 April, Tuesday

Time Temperature Precipitation Wind Pressure Humidity
00:00 -5°C° 0.5 mm 8 mps 703 mmHg 77%
01:00 -6°C° 0.5 mm 8 mps 703 mmHg 75%
02:00 -6°C° 0.5 mm 8 mps 703 mmHg 74%
03:00 -6°C° 0 mm 9 mps 703 mmHg 74%
04:00 -8°C° 0 mm 9 mps 703 mmHg 73%
05:00 -8°C° 0 mm 9 mps 703 mmHg 73%
06:00 -8°C° 0 mm 10 mps 704 mmHg 68%
07:00 -9°C° 0 mm 10 mps 704 mmHg 63%
08:00 -9°C° 0 mm 10 mps 704 mmHg 58%
09:00 -9°C° 0 mm 10 mps 704 mmHg 57%
10:00 -8°C° 0 mm 10 mps 704 mmHg 55%
11:00 -8°C° 0 mm 10 mps 705 mmHg 53%
12:00 -7°C° 0 mm 10 mps 705 mmHg 50%
13:00 -7°C° 0 mm 10 mps 705 mmHg 48%
14:00 -5°C° 0 mm 9 mps 705 mmHg 46%
15:00 -5°C° 0 mm 9 mps 705 mmHg 46%
16:00 -7°C° 0 mm 10 mps 705 mmHg 46%
17:00 -7°C° 0 mm 10 mps 705 mmHg 46%
18:00 -6°C° 0 mm 9 mps 705 mmHg 47%
19:00 -8°C° 0 mm 9 mps 705 mmHg 48%
20:00 -8°C° 0 mm 9 mps 706 mmHg 49%
21:00 -9°C° 0 mm 9 mps 705 mmHg 48%
22:00 -9°C° 0 mm 9 mps 705 mmHg 47%
23:00 -10°C° 0 mm 9 mps 705 mmHg 47%

21 April, Wednesday

Time Temperature Precipitation Wind Pressure Humidity
00:00 -10°C° 0 mm 9 mps 705 mmHg 48%
01:00 -10°C° 0 mm 8 mps 705 mmHg 50%
02:00 -11°C° 0 mm 8 mps 705 mmHg 52%
03:00 -11°C° 0 mm 8 mps 704 mmHg 52%
04:00 -11°C° 0 mm 8 mps 704 mmHg 52%
05:00 -12°C° 0 mm 9 mps 704 mmHg 53%
06:00 -11°C° 0 mm 9 mps 704 mmHg 48%
07:00 -10°C° 0 mm 10 mps 704 mmHg 43%
08:00 -9°C° 0 mm 10 mps 705 mmHg 38%
09:00 -8°C° 0 mm 10 mps 705 mmHg 37%
10:00 -5°C° 0 mm 9 mps 705 mmHg 35%
11:00 -4°C° 0 mm 9 mps 705 mmHg 33%
12:00 -4°C° 0 mm 9 mps 705 mmHg 33%
13:00 -3°C° 0 mm 9 mps 704 mmHg 32%
14:00 -3°C° 0 mm 9 mps 704 mmHg 32%
15:00 -3°C° 0 mm 9 mps 705 mmHg 32%
16:00 -2°C° 0 mm 8 mps 705 mmHg 32%
17:00 -2°C° 0 mm 8 mps 706 mmHg 32%
18:00 -2°C° 0 mm 6 mps 706 mmHg 37%
19:00 -2°C° 0 mm 4 mps 707 mmHg 43%
20:00 -2°C° 0 mm 2 mps 707 mmHg 48%
21:00 -2°C° 0 mm 2 mps 708 mmHg 50%
22:00 -2°C° 0 mm 2 mps 708 mmHg 53%
23:00 -4°C° 0 mm 3 mps 708 mmHg 56%

22 April, Thursday

Time Temperature Precipitation Wind Pressure Humidity
00:00 -4°C° 0 mm 3 mps 709 mmHg 66%
01:00 -4°C° 0 mm 3 mps 709 mmHg 76%
02:00 -4°C° 0 mm 3 mps 709 mmHg 86%
03:00 -5°C° 0 mm 3 mps 710 mmHg 87%
04:00 -5°C° 0 mm 3 mps 710 mmHg 88%
05:00 -6°C° 0 mm 3 mps 710 mmHg 89%
06:00 -4°C° 0 mm 3 mps 711 mmHg 77%
07:00 -3°C° 0 mm 4 mps 711 mmHg 65%
08:00 -1°C° 0 mm 4 mps 712 mmHg 53%
09:00 -1°C° 0.1 mm 5 mps 712 mmHg 48%
10:00 0°C° 0.1 mm 5 mps 712 mmHg 43%
11:00 -1°C° 0.1 mm 6 mps 712 mmHg 39%
12:00 +1°C° 0 mm 6 mps 713 mmHg 38%
13:00 +1°C° 0 mm 6 mps 713 mmHg 37%
14:00 +1°C° 0 mm 6 mps 713 mmHg 36%
15:00 +1°C° 0 mm 6 mps 714 mmHg 37%
16:00 +1°C° 0 mm 6 mps 714 mmHg 38%
17:00 0°C° 0 mm 7 mps 714 mmHg 38%
18:00 -1°C° 0 mm 6 mps 715 mmHg 45%
19:00 -1°C° 0 mm 5 mps 715 mmHg 51%
20:00 -2°C° 0 mm 4 mps 716 mmHg 58%
21:00 -3°C° 0 mm 4 mps 716 mmHg 60%
22:00 -4°C° 0 mm 5 mps 716 mmHg 63%
23:00 -5°C° 0 mm 5 mps 716 mmHg 65%

23 April, Friday

Time Temperature Precipitation Wind Pressure Humidity
00:00 -5°C° 0 mm 5 mps 716 mmHg 70%
01:00 -5°C° 0 mm 5 mps 716 mmHg 74%
02:00 -5°C° 0 mm 4 mps 716 mmHg 79%
03:00 -5°C° 0 mm 4 mps 716 mmHg 79%
04:00 -5°C° 0 mm 4 mps 716 mmHg 79%
05:00 -5°C° 0 mm 4 mps 716 mmHg 79%
06:00 -5°C° 0 mm 5 mps 716 mmHg 67%
07:00 -4°C° 0 mm 6 mps 716 mmHg 55%
08:00 -3°C° 0 mm 6 mps 717 mmHg 43%
09:00 -2°C° 0 mm 6 mps 717 mmHg 39%
10:00 -1°C° 0 mm 6 mps 716 mmHg 35%
11:00 -1°C° 0 mm 6 mps 716 mmHg 32%
12:00 +1°C° 0 mm 6 mps 716 mmHg 30%
13:00 +1°C° 0 mm 6 mps 716 mmHg 29%
14:00 +1°C° 0 mm 6 mps 716 mmHg 28%
15:00 +1°C° 0 mm 6 mps 716 mmHg 29%
16:00 +1°C° 0 mm 6 mps 716 mmHg 31%
17:00 +1°C° 0 mm 6 mps 716 mmHg 32%
18:00 0°C° 0 mm 5 mps 716 mmHg 36%
19:00 -1°C° 0 mm 4 mps 716 mmHg 40%
20:00 -1°C° 0 mm 3 mps 716 mmHg 44%
21:00 -1°C° 0 mm 3 mps 716 mmHg 46%
22:00 -2°C° 0 mm 3 mps 715 mmHg 48%
23:00 -2°C° 0 mm 3 mps 715 mmHg 51%
Show more